Radiation Dose at Monitoring Post of Fukushima Daini Nuclear Power Station
Date,Time,MP-1(microSv/h),MP-2(microSv/h),MP-3(microSv/h),MP-4(microSv/h),MP-5(microSv/h),MP-6(microSv/h),MP-7(microSv/h),Wind Direction,Wind Velocity(m/s),Rain
2016/04/10,00:00,0.452,0.261,0.470,0.415,0.390,0.213,0.184,south-southwest,6.6,No
2016/04/10,00:10,0.450,0.261,0.470,0.418,0.395,0.212,0.185,south-southwest,7.0,No
2016/04/10,00:20,0.452,0.262,0.471,0.417,0.391,0.213,0.185,southwest,4.2,No
2016/04/10,00:30,0.449,0.259,0.470,0.421,0.393,0.212,0.185,south-southwest,4.0,No
2016/04/10,00:40,0.453,0.262,0.472,0.417,0.391,0.212,0.186,southwest,5.0,No
2016/04/10,00:50,0.450,0.260,0.469,0.418,0.394,0.212,0.186,southwest,4.7,No
2016/04/10,01:00,0.452,0.261,0.474,0.416,0.392,0.213,0.185,southwest,3.1,No
2016/04/10,01:10,0.451,0.262,0.470,0.417,0.392,0.212,0.185,southwest,3.9,No
2016/04/10,01:20,0.451,0.260,0.474,0.422,0.393,0.213,0.186,southwest,4.3,No
2016/04/10,01:30,0.454,0.260,0.469,0.417,0.391,0.214,0.185,southwest,4.9,No
2016/04/10,01:40,0.449,0.260,0.474,0.419,0.392,0.213,0.185,southwest,5.3,No
2016/04/10,01:50,0.452,0.261,0.471,0.418,0.391,0.213,0.185,southwest,5.1,No
2016/04/10,02:00,0.450,0.262,0.471,0.419,0.394,0.213,0.184,southwest,5.0,No
2016/04/10,02:10,0.451,0.260,0.473,0.419,0.393,0.213,0.185,southwest,6.4,No
2016/04/10,02:20,0.453,0.262,0.472,0.418,0.391,0.213,0.186,south-southwest,4.1,No
2016/04/10,02:30,0.451,0.263,0.475,0.419,0.391,0.213,0.184,south-southwest,4.3,No
2016/04/10,02:40,0.452,0.261,0.472,0.417,0.393,0.214,0.186,south-southwest,3.7,No
2016/04/10,02:50,0.451,0.261,0.472,0.420,0.391,0.213,0.186,south,3.6,No
2016/04/10,03:00,0.452,0.262,0.473,0.419,0.392,0.214,0.186,south,3.3,No
2016/04/10,03:10,0.454,0.260,0.471,0.418,0.392,0.214,0.186,south-southwest,2.5,No
2016/04/10,03:20,0.450,0.261,0.474,0.420,0.393,0.213,0.188,south-southwest,3.4,No
2016/04/10,03:30,0.454,0.261,0.471,0.418,0.392,0.213,0.186,south-southwest,5.4,No
2016/04/10,03:40,0.451,0.262,0.474,0.418,0.391,0.213,0.186,southwest,5.5,No
2016/04/10,03:50,0.451,0.262,0.473,0.420,0.392,0.213,0.186,southwest,5.8,No
2016/04/10,04:00,0.453,0.262,0.471,0.417,0.391,0.213,0.186,southwest,5.6,No
2016/04/10,04:10,0.451,0.260,0.473,0.420,0.392,0.213,0.186,southwest,3.9,No
2016/04/10,04:20,0.453,0.262,0.471,0.418,0.391,0.212,0.186,southwest,4.4,No
2016/04/10,04:30,0.451,0.262,0.475,0.417,0.391,0.214,0.186,southwest,4.7,No
2016/04/10,04:40,0.451,0.261,0.472,0.419,0.393,0.214,0.185,southwest,4.4,No
2016/04/10,04:50,0.453,0.262,0.473,0.418,0.391,0.213,0.185,southwest,5.1,No
2016/04/10,05:00,0.451,0.261,0.473,0.419,0.391,0.213,0.186,southwest,4.5,No
2016/04/10,05:10,0.452,0.260,0.470,0.419,0.393,0.213,0.185,southwest,3.3,No
2016/04/10,05:20,0.451,0.262,0.472,0.418,0.391,0.213,0.186,southwest,3.9,No
2016/04/10,05:30,0.451,0.261,0.474,0.417,0.392,0.213,0.186,southwest,4.5,No
2016/04/10,05:40,0.452,0.262,0.470,0.418,0.391,0.213,0.185,south-southwest,5.6,No
2016/04/10,05:50,0.450,0.262,0.474,0.417,0.389,0.214,0.186,south-southwest,5.5,No
2016/04/10,06:00,0.451,0.260,0.471,0.419,0.392,0.213,0.185,south-southwest,4.7,No
2016/04/10,06:10,0.452,0.261,0.472,0.416,0.391,0.212,0.185,south-southwest,5.0,No
2016/04/10,06:20,0.450,0.261,0.473,0.418,0.392,0.213,0.185,south-southwest,5.2,No
2016/04/10,06:30,0.453,0.261,0.470,0.419,0.391,0.213,0.184,south-southwest,5.7,No
2016/04/10,06:40,0.450,0.260,0.473,0.416,0.390,0.213,0.185,south-southwest,5.6,No
2016/04/10,06:50,0.453,0.262,0.472,0.418,0.392,0.213,0.186,south-southwest,5.2,No
2016/04/10,07:00,0.451,0.260,0.472,0.416,0.390,0.213,0.185,south-southwest,4.7,No
2016/04/10,07:10,0.450,0.261,0.473,0.419,0.391,0.213,0.186,southwest,5.0,No
2016/04/10,07:20,0.454,0.261,0.469,0.417,0.390,0.212,0.185,southwest,4.7,No
2016/04/10,07:30,0.450,0.260,0.474,0.418,0.393,0.213,0.187,south-southwest,5.1,No
2016/04/10,07:40,0.454,0.259,0.468,0.416,0.391,0.213,0.186,south-southwest,5.0,No
2016/04/10,07:50,0.449,0.260,0.472,0.417,0.393,0.214,0.186,south-southwest,5.0,No
2016/04/10,08:00,0.452,0.261,0.468,0.417,0.391,0.213,0.185,south-southwest,5.7,No
2016/04/10,08:10,0.449,0.262,0.474,0.418,0.395,0.213,0.187,south-southwest,5.1,No
2016/04/10,08:20,0.454,0.259,0.469,0.415,0.389,0.214,0.184,south,5.0,No
2016/04/10,08:30,0.448,0.262,0.473,0.419,0.394,0.212,0.186,south,5.9,No
2016/04/10,08:40,0.453,0.260,0.470,0.414,0.392,0.214,0.184,south,6.5,No
2016/04/10,08:50,0.450,0.262,0.472,0.419,0.393,0.212,0.185,south,7.5,No
2016/04/10,09:00,0.450,0.261,0.470,0.419,0.392,0.213,0.186,south,7.3,No
2016/04/10,09:10,0.454,0.259,0.469,0.414,0.389,0.213,0.185,south,6.3,No
2016/04/10,09:20,0.447,0.259,0.472,0.417,0.394,0.213,0.186,south-southwest,4.7,No
2016/04/10,09:30,0.449,0.262,0.468,0.419,0.392,0.213,0.186,south,5.2,No
2016/04/10,09:40,0.453,0.260,0.474,0.414,0.389,0.213,0.185,south-southeast,6.2,No
2016/04/10,09:50,0.449,0.261,0.472,0.417,0.395,0.213,0.186,southwest,3.9,No
2016/04/10,10:00,0.450,0.262,0.470,0.421,0.393,0.213,0.187,west-southwest,5.6,No
2016/04/10,10:10,0.456,0.260,0.476,0.418,0.390,0.213,0.186,south-southwest,1.3,No
2016/04/10,10:20,0.447,0.259,0.469,0.415,0.389,0.213,0.186,north-northeast,2.5,No
2016/04/10,10:30,0.450,0.261,0.470,0.414,0.395,0.213,0.185,northeast,4.5,No
2016/04/10,10:40,0.454,0.260,0.474,0.420,0.391,0.213,0.185,north-northeast,7.9,No
2016/04/10,10:50,0.450,0.262,0.467,0.417,0.393,0.213,0.186,north,9.2,No
2016/04/10,11:00,0.455,0.262,0.474,0.416,0.395,0.212,0.185,north-northeast,7.8,No
2016/04/10,11:10,0.452,0.262,0.471,0.421,0.393,0.211,0.186,north,10.1,No
2016/04/10,11:20,0.454,0.261,0.472,0.416,0.395,0.213,0.186,north,12.0,No
2016/04/10,11:30,0.450,0.262,0.473,0.417,0.393,0.212,0.186,north,10.9,No
2016/04/10,11:40,0.454,0.260,0.474,0.419,0.395,0.213,0.185,north-northeast,10.8,No
2016/04/10,11:50,0.452,0.262,0.474,0.415,0.391,0.213,0.187,north,10.9,No
2016/04/10,12:00,0.454,0.260,0.472,0.420,0.396,0.212,0.185,north-northeast,9.9,No
2016/04/10,12:10,0.452,0.261,0.476,0.417,0.391,0.212,0.185,north,8.6,No
2016/04/10,12:20,0.453,0.261,0.471,0.418,0.395,0.212,0.184,north,10.3,No
2016/04/10,12:30,0.451,0.260,0.475,0.419,0.390,0.213,0.186,north-northeast,8.2,No
2016/04/10,12:40,0.453,0.260,0.468,0.417,0.395,0.212,0.186,north-northeast,12.3,No
2016/04/10,12:50,0.453,0.261,0.475,0.420,0.391,0.213,0.186,north-northeast,11.4,No
2016/04/10,13:00,0.453,0.262,0.471,0.417,0.396,0.213,0.185,north-northeast,11.9,No
2016/04/10,13:10,0.454,0.261,0.475,0.422,0.392,0.214,0.184,north-northeast,11.1,No
2016/04/10,13:20,0.452,0.261,0.471,0.418,0.395,0.212,0.185,north-northeast,11.2,No
2016/04/10,13:30,0.455,0.260,0.476,0.422,0.392,0.214,0.186,north-northeast,10.9,No
2016/04/10,13:40,0.452,0.261,0.472,0.418,0.395,0.213,0.187,north-northeast,11.3,No
2016/04/10,13:50,0.455,0.261,0.475,0.421,0.393,0.213,0.187,north-northeast,11.2,No
2016/04/10,14:00,0.453,0.261,0.471,0.418,0.394,0.212,0.187,north-northeast,11.2,No
2016/04/10,14:10,0.454,0.263,0.474,0.420,0.393,0.214,0.186,north-northeast,10.6,No
2016/04/10,14:20,0.452,0.260,0.473,0.419,0.394,0.213,0.186,north-northeast,10.6,No
2016/04/10,14:30,0.453,0.261,0.474,0.421,0.397,0.212,0.187,north-northeast,10.5,No
2016/04/10,14:40,0.455,0.262,0.473,0.419,0.391,0.212,0.185,north-northeast,10.2,No
2016/04/10,14:50,0.453,0.262,0.474,0.423,0.395,0.212,0.186,north-northeast,9.0,No
2016/04/10,15:00,0.456,0.261,0.475,0.420,0.393,0.213,0.185,north-northeast,10.9,No
2016/04/10,15:10,0.454,0.261,0.472,0.421,0.396,0.212,0.186,north,8.5,No
2016/04/10,15:20,0.454,0.262,0.477,0.418,0.394,0.213,0.186,north-northeast,9.5,No
2016/04/10,15:30,0.455,0.263,0.471,0.420,0.393,0.214,0.186,north-northeast,9.6,No
2016/04/10,15:40,0.454,0.260,0.475,0.420,0.394,0.213,0.185,north-northeast,8.3,No
2016/04/10,15:50,0.454,0.262,0.473,0.420,0.394,0.214,0.187,north-northeast,7.7,No
2016/04/10,16:00,0.455,0.262,0.473,0.420,0.395,0.214,0.187,north-northeast,7.8,No
2016/04/10,16:10,0.453,0.261,0.475,0.419,0.396,0.214,0.186,north-northeast,8.7,No
2016/04/10,16:20,0.454,0.262,0.472,0.420,0.392,0.213,0.186,north-northeast,9.3,No
2016/04/10,16:30,0.453,0.262,0.475,0.419,0.394,0.213,0.186,north,8.3,No
2016/04/10,16:40,0.457,0.262,0.474,0.422,0.394,0.213,0.185,north-northeast,7.5,No
2016/04/10,16:50,0.452,0.263,0.473,0.419,0.392,0.213,0.185,north-northeast,7.4,No
2016/04/10,17:00,0.453,0.262,0.475,0.421,0.394,0.213,0.186,north,8.0,No
2016/04/10,17:10,0.456,0.261,0.473,0.421,0.392,0.213,0.185,north-northeast,7.0,No
2016/04/10,17:20,0.452,0.263,0.476,0.418,0.394,0.213,0.186,north-northeast,6.4,No
2016/04/10,17:30,0.453,0.260,0.475,0.421,0.392,0.213,0.186,north-northeast,6.9,No
2016/04/10,17:40,0.454,0.262,0.474,0.420,0.393,0.214,0.186,north-northeast,7.2,No
2016/04/10,17:50,0.453,0.262,0.475,0.420,0.395,0.214,0.186,north,6.4,No
2016/04/10,18:00,0.456,0.261,0.472,0.421,0.393,0.213,0.187,north,5.7,No
2016/04/10,18:10,0.452,0.262,0.476,0.418,0.393,0.213,0.186,north-northeast,5.0,No
2016/04/10,18:20,0.453,0.260,0.475,0.421,0.393,0.214,0.186,north-northeast,3.0,No
2016/04/10,18:30,0.456,0.261,0.473,0.420,0.392,0.213,0.187,north,3.4,No
2016/04/10,18:40,0.452,0.263,0.475,0.419,0.391,0.213,0.186,north,3.1,No
2016/04/10,18:50,0.454,0.262,0.473,0.421,0.393,0.213,0.185,north,6.5,No
2016/04/10,19:00,0.454,0.260,0.474,0.419,0.393,0.213,0.186,north,6.2,No
2016/04/10,19:10,0.453,0.262,0.477,0.421,0.392,0.213,0.185,north,5.1,No
2016/04/10,19:20,0.457,0.262,0.474,0.421,0.393,0.213,0.186,north,5.4,No
2016/04/10,19:30,0.453,0.261,0.474,0.419,0.392,0.213,0.187,north,5.7,No
2016/04/10,19:40,0.454,0.262,0.474,0.421,0.391,0.213,0.187,north,5.9,No
2016/04/10,19:50,0.456,0.262,0.473,0.421,0.393,0.213,0.187,north,6.2,No
2016/04/10,20:00,0.453,0.261,0.475,0.420,0.393,0.213,0.186,north,6.6,No
2016/04/10,20:10,0.454,0.263,0.474,0.423,0.392,0.213,0.185,north,5.9,No
2016/04/10,20:20,0.453,0.262,0.474,0.419,0.393,0.212,0.185,north,6.1,No
2016/04/10,20:30,0.452,0.261,0.476,0.420,0.393,0.213,0.186,north,6.2,No
2016/04/10,20:40,0.457,0.261,0.473,0.422,0.392,0.213,0.186,north,7.8,No
2016/04/10,20:50,0.455,0.263,0.475,0.420,0.391,0.212,0.186,north,7.7,No
2016/04/10,21:00,0.454,0.262,0.474,0.422,0.392,0.213,0.188,north,6.7,No
2016/04/10,21:10,0.455,0.262,0.474,0.421,0.392,0.213,0.186,north,7.3,No
2016/04/10,21:20,0.454,0.263,0.475,0.419,0.392,0.213,0.186,north,7.4,No
2016/04/10,21:30,0.454,0.263,0.474,0.421,0.393,0.213,0.186,north,7.5,No
2016/04/10,21:40,0.455,0.261,0.473,0.419,0.392,0.214,0.185,north,7.3,No
2016/04/10,21:50,0.453,0.262,0.478,0.419,0.393,0.214,0.185,north,6.8,No
2016/04/10,22:00,0.454,0.260,0.474,0.421,0.392,0.213,0.186,north,6.6,No
2016/04/10,22:10,0.455,0.262,0.474,0.420,0.391,0.214,0.187,north,7.3,No
2016/04/10,22:20,0.453,0.264,0.476,0.418,0.392,0.214,0.187,north,6.5,No
2016/04/10,22:30,0.454,0.262,0.474,0.422,0.393,0.213,0.187,north,5.6,No
2016/04/10,22:40,0.452,0.262,0.474,0.418,0.392,0.213,0.186,north-northwest,5.4,No
2016/04/10,22:50,0.453,0.261,0.475,0.419,0.392,0.214,0.186,north-northwest,5.4,No
2016/04/10,23:00,0.453,0.261,0.473,0.421,0.393,0.213,0.186,north,5.2,No
2016/04/10,23:10,0.454,0.262,0.474,0.420,0.391,0.213,0.185,north-northwest,5.6,No
2016/04/10,23:20,0.455,0.263,0.475,0.420,0.394,0.214,0.187,north-northwest,6.0,No
2016/04/10,23:30,0.456,0.262,0.475,0.420,0.392,0.213,0.187,north-northwest,6.0,No
2016/04/10,23:40,0.453,0.260,0.475,0.421,0.392,0.213,0.186,north-northwest,5.9,No
2016/04/10,23:50,0.456,0.263,0.472,0.420,0.392,0.213,0.187,north-northwest,5.4,No
